GECAM-B (47235 NORAD) Tracking and Keplerian Element Data

This shows tracking and keplerian element data for the satellite.

Feedback or suggestion? Click here.




ElementValue
Catalog47235
NameGECAM-B
Epoch Orbit1802
Epoch Day99.80573716
Epoch Year2021
RAAN326.8232
Inclination29.0006
Eccentricity0.0012845
Argument of Perigee95.8573
Mean Anonmoly264.3484
Mean Motion14.90780954
Decay Rate3.95E-06
L11 47235U 20094B 21099.80573716 .00000395 00000-0 25520-4 0 9999
L22 47235 29.0006 326.8232 0012845 95.8573 264.3484 14.90780954 18022

Live tracking and technical data element details for GECAM-B (NORAD 47235). GECAM-B can be tracked NOW for your location showing map with azimuth and elevation plus other details from your city location.

Track the satellite on the map from your city or location and see movement details for azimuth, elevation, latitude, longitude, range, height, and movement on the map or in text.







IsCatalogInMostPopularTable: catalog: 47235, numindb: 36
Update: records affected: 1



GetName: 47235 GECAM-B

Hit Count: updated at: Sat, 10 Apr 2021 19:09:01 GMT